This is the latest recevied weather packets stored in our database for station/object W8CWV-13. If no packets are shown the sender has not sent any weather packets the latest 10 day(s).
| Time | Temp. | Humidity | Pressure | Rain* | Wind** | Luminosity | Snow |
|---|---|---|---|---|---|---|---|
| 1787765240 | 33.33° C | 100% | 1027.5 hPa | - | - | - | - |
| 1787764671 | 32.78° C | 100% | 1027.6 hPa | - | - | - | - |
| 1787764096 | 33.33° C | 100% | 1027.6 hPa | - | - | - | - |
| 1787763518 | 33.33° C | 100% | 1027.7 hPa | - | - | - | - |
| 1787762944 | 33.33° C | 100% | 1027.8 hPa | - | - | - | - |
| 1787762371 | 32.78° C | 100% | 1028.2 hPa | - | - | - | - |
| 1787761801 | 32.78° C | 100% | 1027.9 hPa | - | - | - | - |
| 1787761220 | 31.67° C | 100% | 1028 hPa | - | - | - | - |
| 1787760639 | 31.11° C | 100% | 1028.2 hPa | - | - | - | - |
| 1787760065 | 30.56° C | 100% | 1028.5 hPa | - | - | - | - |
| 1787759491 | 29.44° C | 100% | 1028.6 hPa | - | - | - | - |
| 1787758922 | 29.44° C | 100% | 1028.7 hPa | - | - | - | - |
| 1787758348 | 29.44° C | 100% | 1028.6 hPa | - | - | - | - |
| 1787757773 | 28.89° C | 100% | 1028.7 hPa | - | - | - | - |
| 1787757195 | 29.44° C | 100% | 1028.7 hPa | - | - | - | - |
| 1787756628 | 28.89° C | 100% | 1028.5 hPa | - | - | - | - |
| 1787756050 | 28.89° C | 100% | 1028.4 hPa | - | - | - | - |
| 1787755477 | 28.89° C | 100% | 1028.8 hPa | - | - | - | - |
| 1787754901 | 28.33° C | 100% | 1028.7 hPa | - | - | - | - |
| 1787754325 | 27.78° C | 100% | 1029.4 hPa | - | - | - | - |
| 1787753745 | 27.22° C | 100% | 1029 hPa | - | - | - | - |
| 1787753173 | 26.11° C | 100% | 1028.7 hPa | - | - | - | - |
| 1787752601 | 26.67° C | 100% | 1029.2 hPa | - | - | - | - |
* Rain since midnight (hover to see other rain measurements)
** Current wind speed in m/s (hover to see current wind gust speed)